Content
SEND FEEDBACK

Daily
Averages
Monthly
Summary
United States of America

BROOKLINE, MASSACHUSETTS


Home > North America > United States > Massachusetts
Elevation: 118 feet     Latitude: 42 24N     Longitude: 071 06W

WEATHER
 
SELECT A DAY
Number of Records: 203,113;   Date Range: 1/1/95 - 9/16/14
 
SHARE

PRINT THIS DATA

[ ← Previous Day ]
WEATHER ALMANAC - OCTOBER 12, 2013
[ Next Day → ]
[ °C ]   °F
Weather ElementAverageHighLow
Temperature56.9 °F60.8 °F (10:23 am)54 °F (2:54 am)
Dewpoint52 °F55.9 °F (8:54 am)46.9 °F (2:54 am)
Humidity83.6 %94 % (8:00 am)72 % (10:54 pm)
Barometer30.31 in30.39 in (8:54 pm)30.17 in (1:54 am)
Wind Speed12.9 mph18.4 mph (9:54 am)
Wind Gust23 mph (9:54 am)
Weather ElementAverage
Visibility7.9 mi
Wind DirectionENE (74.2 °)

Weather ElementTotal
Precipitation---
Heating Degree Days7.6 (Base 65)
Growing Degree Days7.4 (Base 50)
Averaged from 31 records on October 12, 2013
WEATHER CONDITIONS BREAKOUT
WIND DIRECTION BREAKOUT
WEATHER BY HOUR - OCTOBER 12, 2013
[ °C ]   °F
Local TimeTemperatureDewpointHumidityBarometerVisibilityWind DirectionWind SpeedGust SpeedPrecipitationEventsConditions
1:54 AM55.0 °F48.9 °F80 %30.17 in10.0 miNorth (350°)6.9 mphScattered Clouds
2:54 AM54.0 °F46.9 °F77 %30.17 in10.0 miNorth (360°)5.8 mphMostly Cloudy
3:54 AM54.0 °F48.9 °F83 %30.17 in10.0 miNorth (10°)8.1 mphScattered Clouds
4:54 AM54.0 °F50.0 °F86 %30.19 in10.0 miNNE (30°)8.1 mphScattered Clouds
5:54 AM54.0 °F51.1 °F90 %30.21 in10.0 miNNE (20°)5.8 mphScattered Clouds
6:54 AM55.9 °F53.1 °F90 %30.22 in10.0 miNNE (20°)9.2 mphScattered Clouds
7:54 AM57.0 °F54.0 °F89 %30.25 in10.0 miNE (40°)11.5 mphScattered Clouds
8:00 AM57.2 °F55.4 °F94 %30.25 in10.0 miNE (40°)13.8 mphMostly Cloudy
8:54 AM60.1 °F55.9 °F86 %30.27 in10.0 miNE (50°)15.0 mph21.9 mphOvercast
9:54 AM60.1 °F55.0 °F83 %30.30 in10.0 miENE (60°)18.4 mph23.0 mphOvercast
10:23 AM60.8 °F55.4 °F82 %30.30 in10.0 miENE (60°)16.1 mphOvercast
10:54 AM60.1 °F54.0 °F80 %30.32 in10.0 miENE (70°)16.1 mphOvercast
11:54 AM60.1 °F54.0 °F80 %30.32 in10.0 miEast (80°)13.8 mphOvercast
12:04 PM60.8 °F53.6 °F77 %30.32 in10.0 miEast (80°)16.1 mphOvercast
12:54 PM60.1 °F54.0 °F80 %30.32 in10.0 miENE (70°)15.0 mphOvercast
1:25 PM59.0 °F53.6 °F82 %30.32 in8.0 miNE (50°)15.0 mphOvercast
1:54 PM57.9 °F53.1 °F84 %30.32 in8.0 miENE (60°)15.0 mphOvercast
2:54 PM57.9 °F54.1 °F87 %30.33 in3.0 miENE (60°)12.7 mphOvercast
3:54 PM57.0 °F53.4 °F88 %30.34 in2.0 miNE (50°)16.1 mphOvercast
4:18 PM57.2 °F53.6 °F88 %30.34 in1.5 miNE (50°)17.3 mphOvercast
4:54 PM55.9 °F53.1 °F90 %30.35 in1.5 miENE (60°)15.0 mph0.00 inLight Drizzle
5:54 PM55.9 °F53.1 °F90 %30.36 in1.5 miNE (50°)13.8 mph0.00 inLight Drizzle
6:25 PM55.4 °F51.8 °F88 %30.35 in1.5 miENE (60°)13.8 mph0.00 inOvercast
6:27 PM55.4 °F51.8 °F88 %30.35 in4.0 miENE (70°)13.8 mph0.00 inOvercast
6:54 PM55.9 °F51.1 °F84 %30.36 in7.0 miENE (60°)13.8 mph0.00 inOvercast
7:09 PM55.4 °F51.8 °F88 %30.37 in7.0 miNE (50°)12.7 mphOvercast
7:54 PM55.9 °F50.0 °F80 %30.38 in10.0 miENE (70°)15.0 mphOvercast
8:54 PM55.9 °F48.9 °F77 %30.39 in10.0 miENE (70°)11.5 mphOvercast
9:54 PM55.9 °F48.0 °F75 %30.39 in10.0 miENE (60°)11.5 mphOvercast
10:54 PM55.9 °F46.9 °F72 %30.39 in10.0 miENE (60°)12.7 mphOvercast
11:54 PM55.0 °F46.9 °F74 %30.39 in10.0 miEast (80°)9.2 mphMostly Cloudy
Hourly data recorded from KBOS, located miles away from Brookline, Massachusetts







STORIES FROM OUR PARTNERS